This is the latest recevied weather packets stored in our database for station/object K8JCL-13. If no packets are shown the sender has not sent any weather packets the latest 10 day(s).
| Time | Temp. | Humidity | Pressure | Rain* | Wind** | Luminosity | Snow |
|---|---|---|---|---|---|---|---|
| 1777734226 | 9.44° C | 53% | 1018.5 hPa | 0 mm | - | 553 W/m² | - |
| 1777733922 | 8.89° C | 54% | 1018.7 hPa | 0 mm | - | 545 W/m² | - |
| 1777733618 | 8.33° C | 54% | 1018.8 hPa | 0 mm | - | 531 W/m² | - |
| 1777733315 | 8.33° C | 53% | 1018.8 hPa | 0 mm | - | 520 W/m² | - |
| 1777733012 | 8.33° C | 53% | 1018.7 hPa | 0 mm | - | 510 W/m² | - |
| 1777732708 | 8.33° C | 51% | 1018.8 hPa | 0 mm | - | 497 W/m² | - |
| 1777732405 | 8.33° C | 54% | 1018.8 hPa | 0 mm | - | 484 W/m² | - |
| 1777732103 | 7.78° C | 51% | 1018.7 hPa | 0 mm | - | 474 W/m² | - |
| 1777731800 | 8.33° C | 53% | 1018.4 hPa | 0 mm | - | 461 W/m² | - |
| 1777731496 | 7.78° C | 57% | 1018.6 hPa | 0 mm | - | 448 W/m² | - |
| 1777731195 | 7.78° C | 56% | 1018.7 hPa | 0 mm | - | 434 W/m² | - |
| 1777730892 | 7.22° C | 58% | 1018.5 hPa | 0 mm | - | 420 W/m² | - |
| 1777730590 | 7.22° C | 58% | 1018.5 hPa | 0 mm | - | 408 W/m² | - |
| 1777730286 | 7.78° C | 59% | 1018.4 hPa | 0 mm | - | 395 W/m² | - |
| 1777729983 | 6.67° C | 60% | 1018.5 hPa | 0 mm | - | 381 W/m² | - |
| 1777729678 | 6.67° C | 62% | 1018.5 hPa | 0 mm | - | 365 W/m² | - |
| 1777729376 | 6.67° C | 61% | 1018.5 hPa | 0 mm | - | 353 W/m² | - |
| 1777729072 | 6.67° C | 63% | 1018.5 hPa | 0 mm | - | 339 W/m² | - |
| 1777728769 | 6.67° C | 66% | 1018.6 hPa | 0 mm | - | 324 W/m² | - |
| 1777728466 | 6.67° C | 64% | 1018.6 hPa | 0 mm | - | 309 W/m² | - |
| 1777728163 | 6.11° C | 66% | 1018.7 hPa | 0 mm | - | 296 W/m² | - |
| 1777727860 | 6.11° C | 67% | 1018.7 hPa | 0 mm | - | 277 W/m² | - |
| 1777727557 | 6.11° C | 69% | 1018.7 hPa | 0 mm | - | 264 W/m² | - |
| 1777727254 | 6.11° C | 69% | 1018.8 hPa | 0 mm | - | 250 W/m² | - |
| 1777726952 | 5.56° C | 69% | 1018.6 hPa | 0 mm | - | 252 W/m² | - |
* Rain latest hour (hover to see other rain measurements)
** Current wind speed in m/s (hover to see current wind gust speed)